Nashville, TN

10:13 PM CDT on September 19, 2019 (GMT -0500)
Nashville International

Weather History for KBNA - August, 2019

Change the Weather History Date:

Saturday, August 17, 2019

  Actual Average Record
Temperature  
Mean Temperature 82 °F 79 °F  
Max Temperature 93 °F 89 °F 103 °F (1988)
Min Temperature 70 °F 69 °F 53 °F (1979)
Degree Days  
Heating Degree Days 0    
Month to date heating degree days 0  
Since 1 June heating degree days 0  
Since 1 July heating degree days 0  
Cooling Degree Days 17    
Month to date cooling degree days 279  
Year to date cooling degree days 1499  
Since 1 June cooling degree days 1163  
Growing Degree Days 32 (Base 50)    
Moisture  
Dew Point 68 °F    
Average Humidity 65    
Maximum Humidity 90    
Minimum Humidity 47    
Precipitation  
Precipitation 0.00 in 0.10 in 3.22 in (2005)
Month to date precipitation 3.56 1.79  
Year to date precipitation 46.18 30.87  
Sea Level Pressure  
Sea Level Pressure 29.97 in    
Wind  
Wind Speed 4 mph (SSE)    
Max Wind Speed 10 mph    
Max Gust Speed 18 mph    
Visibility 10 miles    
Events      
T = Trace of Precipitation, MM = Missing Value Source: NWS Daily Summary

Daily Weather History Graph

Daily Weather History Graph

Search for Another Location

Airport or City:

Astronomy

Aug. 17, 2019 Rise Set
Actual Time 6:06 AM CDT 7:34 PM CDT
Civil Twilight 5:39 AM CDT 8:01 PM CDT
Nautical Twilight 5:06 AM CDT 8:34 PM CDT
Astronomical Twilight 4:32 AM CDT 9:08 PM CDT
Moon 9:05 PM CDT (8/17) 7:52 AM CDT (8/17)
Length of Visible Light 14h 22m
Length of Day
13h 28m
Waning Gibbous, 96% of the Moon is Illuminated
Aug 17
Waning Gibbous
Aug 23
Last Quarter
Aug 30
New
Sep 5
First Quarter
Sep 13
Full

Hourly Weather History & Observations

Time (CDT) Temp. Heat Index Dew Point Humidity Pressure Visibility Wind Dir Wind Speed Gust Speed Precip Events Conditions
12:53 AM 75.9 °F - 68.0 °F 76% 29.98 in 10.0 mi Calm Calm - N/A   Clear
1:53 AM 73.0 °F - 68.0 °F 84% 29.96 in 10.0 mi SSE 4.6 mph - N/A   Clear
2:53 AM 72.0 °F - 66.9 °F 84% 29.96 in 10.0 mi South 4.6 mph - N/A   Clear
3:53 AM 71.1 °F - 66.9 °F 87% 29.94 in 10.0 mi Calm Calm - N/A   Clear
4:53 AM 71.1 °F - 66.0 °F 84% 29.95 in 10.0 mi Calm Calm - N/A   Clear
5:53 AM 70.0 °F - 66.0 °F 87% 29.97 in 10.0 mi Calm Calm - N/A   Partly Cloudy
6:53 AM 71.1 °F - 66.9 °F 87% 30.00 in 10.0 mi Calm Calm - N/A   Mostly Cloudy
7:53 AM 73.9 °F - 68.0 °F 82% 30.01 in 10.0 mi South 4.6 mph - N/A   Mostly Cloudy
8:53 AM 78.1 °F - 68.0 °F 71% 30.02 in 10.0 mi Calm Calm - N/A   Mostly Cloudy
9:53 AM 84.9 °F 87.1 °F 66.0 °F 53% 30.03 in 10.0 mi South 3.5 mph - N/A   Scattered Clouds
10:53 AM 87.1 °F 89.9 °F 66.9 °F 51% 30.03 in 10.0 mi Variable 3.5 mph - N/A   Partly Cloudy
11:53 AM 91.0 °F 95.6 °F 69.1 °F 48% 30.00 in 10.0 mi Variable 3.5 mph - N/A   Scattered Clouds
12:53 PM 90.0 °F 95.4 °F 70.0 °F 52% 30.00 in 10.0 mi ESE 4.6 mph - N/A   Mostly Cloudy
1:53 PM 91.9 °F 95.9 °F 68.0 °F 45% 29.98 in 10.0 mi Calm Calm - N/A   Mostly Cloudy
3:53 PM 91.9 °F 95.9 °F 68.0 °F 45% 29.95 in 10.0 mi ESE 8.1 mph - N/A   Scattered Clouds
4:53 PM 91.9 °F 95.9 °F 68.0 °F 45% 29.94 in 10.0 mi SE 8.1 mph - N/A   Scattered Clouds
5:53 PM 91.0 °F 95.2 °F 68.0 °F 47% 29.94 in 10.0 mi South 8.1 mph - N/A   Scattered Clouds
6:53 PM 88.0 °F 91.4 °F 68.0 °F 51% 29.93 in 10.0 mi SSE 5.8 mph - N/A   Scattered Clouds
7:53 PM 84.9 °F 88.2 °F 68.0 °F 57% 29.93 in 10.0 mi South 3.5 mph - N/A   Partly Cloudy
8:53 PM 80.1 °F 83.2 °F 70.0 °F 71% 29.96 in 10.0 mi South 4.6 mph - N/A   Partly Cloudy
9:53 PM 79.0 °F - 70.0 °F 74% 29.97 in 10.0 mi South 5.8 mph - N/A   Partly Cloudy
10:53 PM 79.0 °F - 71.1 °F 77% 29.97 in 10.0 mi South 3.5 mph - N/A   Clear
11:53 PM 75.9 °F - 70.0 °F 82% 29.96 in 10.0 mi South 3.5 mph - N/A   Clear